Regional Weather Roundup
Issued by NWS

Home | Current Version | Previous Version | Text Only | Print | Product List | Glossary Off
Versions: 1 2 3 4 5 6 7 8 9 10 11 12 13 14 15 16 17 18 19 20 21 22 23 24 25 26 27 28 29 30 31 32 33 34 35 36 37 38 39 40 41 42 43 44 45 46 47 48 49 50

000
ASUS44 KMEG 220410
RWRTN
TENNESSEE HOURLY STATE WEATHER ROUNDUP
NATIONAL WEATHER SERVICE MEMPHIS TN
1100 PM CDT MON AUG 21 2017

TNZ002-004-019-021-049-052-054-088>092-220500-
WEST TENNESSEE

CITY           SKY/WX    TMP DP  RH WIND       PRES   REMARKS
MEMPHIS INTL   PTCLDY    82  75  79 S8        30.10S
NWS MEMPHIS      N/A     81 N/A N/A MISG        N/A
JACKSON        CLEAR     77  76  96 S3        30.10F
DYERSBURG      CLEAR     81  77  88 S3        30.08F
SOMERVILLE     PTCLDY    81  77  89 CALM      30.10S
COVINGTON      CLEAR     81  77  89 S5        30.08F
UNION CITY     PTCLDY    79  75  89 S6        30.06F
BOLIVAR        CLOUDY    81  77  89 S3        30.10F
PARIS          CLEAR     77  73  88 CALM      30.08F
HUNTINGDON     CLEAR     75  73  94 CALM      30.09S
LEXINGTON      CLEAR     79  73  83 S3        30.10F
SELMER         PTCLDY    75  75 100 CALM      30.12S
SAVANNAH       PTCLDY    75  73  94 CALM      30.11F
$$

TNZ008-025-027-028-033-062-065-066-220500-
NORTH MIDDLE TENNESSEE

CITY           SKY/WX    TMP DP  RH WIND       PRES   REMARKS
NASHVILLE      CLEAR     77  70  79 S5        30.13F
PORTLAND       CLEAR     77  72  83 S7        30.12F
CLARKSVILLE    CLEAR     75  71  87 CALM      30.10F
SMYRNA         CLEAR     74  70  87 SE3       30.14F
COOKEVILLE       N/A     70  68  94 CALM      30.17S
GALLATIN       CLEAR     75  72  88 CALM      30.15S
CROSSVILLE     CLEAR     69  67  93 CALM      30.24R
$$

TNZ061-075-076-078-094-096-097-220500-
SOUTH MIDDLE TENNESSEE

CITY           SKY/WX    TMP DP  RH WIND       PRES   REMARKS
FAYETTEVILLE   CLEAR     77  70  78 CALM      30.15F
TULLAHOMA      CLEAR     73  70  88 CALM      30.18S
WINCHESTER     CLEAR     73  72  94 CALM      30.16F
MCMINNVILLE    CLEAR     73  73 100 CALM      30.17F
COLUMBIA       CLEAR     73  73 100 SE3       30.12S
SHELBYVILLE    CLEAR     72  72 100 CALM      30.14F
$$

TNZ017-018-042-046-047-220500-
NORTHEAST TENNESSEE

CITY           SKY/WX    TMP DP  RH WIND       PRES   REMARKS
TRI CITIES     PTCLDY    71  69  93 CALM      30.21S
ELIZABETHTON   CLEAR     72  68  88 VRB3      30.22S
$$

TNZ012-013-036-069-073-074-220500-
CENTRAL EAST TENNESSEE

CITY           SKY/WX    TMP DP  RH WIND       PRES   REMARKS
KNOXVILLE      PTCLDY    78  68  71 SW3       30.17R
OAK RIDGE      PTCLDY    75  71  87 CALM      30.19R
DOWNTOWN KNOXV MOCLDY    73  73 100 CALM      30.16S
GATLINBURG     CLEAR     73  68  83 CALM      30.17S
MORRISTOWN     PTCLDY    75  68  78 CALM      30.18S
JACKSBORO        N/A     70  70 100 CALM      30.22S
$$

TNZ083-085-099-220500-
SOUTHEAST TENNESSEE

CITY           SKY/WX    TMP DP  RH WIND       PRES   REMARKS
CHATTANOOGA    PTCLDY    78  71  79 CALM      30.15F
DAYTON         CLOUDY    73  73 100 CALM      30.16R
$$

SKY/WX REPORTED AS FAIR MEANS FEW OR NO CLOUDS BELOW
12 THOUSAND FEET.




USA.gov is the U.S. government's official web portal to all federal, state and local government web resources and services.